ATLAS 5 CENTAUR R/B, 40375

Orbit data source: Space-Track

ATLAS 5 CENTAUR R/B, 40375 is space debris in HEO originally from a launch on Wed, 21 Jan 2015 UTC launched from the Air Force Eastern Test Range (AFETR). Debris objects in space refer to the collection of defunct objects orbiting the Earth. Examples of debris include non-operational satellites, rocket bodies, and fragments generated from explosions, collisions, or faulty payload assembly.

Loading next visibility...
Identifier
40375, 2015-002B
Orbit
HEO
Country
Flag of USUS
Related business
Manufacturer
LMSS Denver
Mission
Spacecraft
Bus & Motor
CENTAUR SEC, RL10C-1
Mass
~2,020 kg wet, 2,020 kg dry
Launch date (UTC)
2015-01-21 (11 years ago)
Launch vehicle
Unknown
Launch site
Air Force Eastern Test Range (AFETR)
Object type
Payload
Rocket body
Debris
Shape & HBR
Cyl + 1 Nozzle, 5.8 m
Radar Cross Section
32.260 m², Large (>1 m²)

Expand to show TLE details & history
Last TLE update: 3 days ago

TLE from 3 days ago
0 ATLAS 5 CENTAUR R/B
1 40375U 15002B   25258.34070968 -.00000110  00000-0  00000-0 0  9999
2 40375  19.1799 339.6502 6076339  34.9160 352.8119  2.08929126 81313
Epoch: 2025-09-15T08:10Z
TLE epoch observation values (Epoch: 2025-09-15T08:10:37.316Z)
Latitude
0.00002°
Longitude
-137.54262°
Altitude
4,481.974 km
Speed
7.615 km/s
True Right ascension
22h 38m 38s
True Declination
0° 00' 00"
Sunlit
Object was in full shadow at epoch
Visualization orbit readout
Latitude
Unknown
Longitude
Unknown
Altitude
Unknown
Speed
Unknown
Apparent Right ascension
Unknown
Apparent Declination
Unknown
Sunlit
N/A
Visualization observer readout
Local Sidereal Time
14:48:51
Azimuth
Unknown
Elevation
Unknown
Doppler factor
Unknown
Orbital elements
Apogee altitude
35,178.255 km
Perigee altitude
3,764.296 km
Semi-major axis
25,849.413 km
Eccentricity
0.60763
Inclination
19.1799°
RAAN
339.6502°
Arg. of periapsis
34.916°
True anomaly
324.68733°
Mean anomaly
352.8119°
Eccentric anomaly
342.12685°
Mean motion
0.52224 °/min
Orbital period
689.34 mins
BSTAR
0
Loading maneuver chart data...
Computing Atmospheric mass density...
Loading historical data...
Loading historical data...
Loading historical data...
Loading historical data...
Loading historical data...
Loading historical data...
Loading historical data...
Other satellites on launch #2 in the year 2015 (2015-01-21 UTC)

Documentation

Showing up to 5 results
|